This demonstration page uses our WeatherBlox Daily Observations layout. Learn more.

Hourly Observations for December 24, 2016

Temp ( °F °C ) Dew Point ( °F °C ) Humidity (%) Winds ( mph kmh ) Pressure ( in mb ) Visibility ( mi km ) Precip ( " mm )
12:54 am 00:54 Clear with Mist and Fog 19 -7.2 18 -7.8 96 96 N 3 6 30.07 1018 4 6.43736 0 0
1:10 am 01:10 Clear with Mist and Fog 21 -6 19 -7 93 93 NNW 5 7 30.12 1020 1.75 2.816345 0 0
1:16 am 01:16 Clear with Mist and Fog 22 -5.6 21 -6.1 96 96 NNW 7 11 30.12 1020 3 4.82802 0 0
1:54 am 01:54 Clear 18 -7.8 17 -8.3 96 96 E 5 7 30.06 1018 8 12.87472 0 0
2:54 am 02:54 Clear 22 -5.6 21 -6.1 96 96 NW 3 6 30.1 1019 8 12.87472 0 0
3:54 am 03:54 Clear 20 -6.7 16 -8.9 85 85 S 3 6 30.1 1019 9 14.48406 0 0
4:18 am 04:18 Mostly Clear with Mist and Fog 19 -7 18 -8 93 93 SE 5 7 30.15 1021 2 3.21868 0 0
4:20 am 04:20 Mostly Cloudy with Mist and Fog 19 -7 18 -8 93 93 SE 3 6 30.15 1021 1 1.60934 0 0
4:27 am 04:27 Mostly Cloudy with Freezing Fog 19 -7.2 17 -8.3 92 92 SSE 3 6 30.15 1021 0.5 0.80467 0 0
4:31 am 04:31 Mostly Clear with Mist and Fog 19 -7 18 -8 93 93 SSE 3 6 30.15 1021 1.5 2.41401 0 0
4:33 am 04:33 Mostly Clear with Mist and Fog 19 -7 18 -8 93 93 Calm 30.15 1021 3 4.82802 0 0
4:54 am 04:54 Clear with Mist and Fog 20 -6.7 18 -7.8 92 92 Calm 30.1 1019 6 9.65604 0 0
5:21 am 05:21 Clear with Mist and Fog 17 -8.3 16 -8.9 95 95 Calm 30.18 1022 1.75 2.816345 0 0
5:47 am 05:47 Clear with Freezing Fog 16 -8.9 14 -10 92 92 Calm 30.18 1022 0.5 0.80467 0 0
5:54 am 05:54 Mostly Cloudy with Freezing Fog 15 -9.4 13 -10.6 91 91 Calm 30.12 1020 0.5 0.80467 0 0
6:15 am 06:15 Mostly Cloudy with Freezing Fog 18 -8 16 -9 93 93 NNW 3 6 30.21 1023 0.25 0.402335 0 0
6:22 am 06:22 Mostly Cloudy with Mist and Fog 18 -8 16 -9 93 93 NNW 6 9 30.21 1023 1 1.60934 0 0
6:24 am 06:24 Partly Cloudy with Mist and Fog 18 -8 16 -9 93 93 NNW 6 9 30.21 1023 2.5 4.02335 0 0
6:31 am 06:31 Mostly Clear 17 -8.3 15 -9.4 92 92 N 5 7 30.21 1023 10 16.0934 0 0
6:54 am 06:54 Mostly Clear 16 -8.9 14 -10 92 92 N 6 9 30.13 1020 8 12.87472 0 0
7:54 am 07:54 Sunny 13 -10.6 11 -11.7 92 92 N 7 11 30.15 1021 9 14.48406 0 0
8:54 am 08:54 Sunny 20 -6.7 17 -8.3 89 89 NNW 3 6 30.17 1022 10 16.0934 0 0
9:54 am 09:54 Sunny 26 -3.3 24 -4.4 92 92 N 6 9 30.21 1023 10 16.0934 0 0
10:54 am 10:54 Sunny 29 -1.7 27 -2.8 92 92 NE 3 6 30.2 1023 10 16.0934 0 0
11:46 am 11:46 Mostly Cloudy 32 0 28 -2 87 87 Calm 30.18 1022 10 16.0934 0 0
11:54 am 11:54 Mostly Cloudy 32 0 28 -2.2 85 85 Calm 30.17 1022 10 16.0934 0 0
12:20 pm 12:20 Cloudy 34 1 30 -1 87 87 VRB 3 6 30.18 1022 8 12.87472 0 0
12:54 pm 12:54 Mostly Cloudy with Mist and Fog 34 1.1 31 -0.6 89 89 SSE 6 9 30.17 1022 6 9.65604 0 0
1:04 pm 13:04 Partly Cloudy 36 2 30 -1 81 81 SSE 5 7 30.18 1022 7 11.26538 0 0
1:42 pm 13:42 Mostly Cloudy with Mist and Fog 37 3 34 1 87 87 SE 6 9 30.18 1022 5 8.0467 0 0
1:54 pm 13:54 Hazy 38 3.3 33 0.6 83 83 ESE 7 11 30.13 1020 5 8.0467 0 0
2:54 pm 14:54 Sunny 40 4.4 33 0.6 77 77 E 8 13 30.11 1020 10 16.0934 0 0
3:54 pm 15:54 Sunny 39 3.9 34 1.1 82 82 E 8 13 30.11 1020 8 12.87472 0 0
4:54 pm 16:54 Sunny with Mist and Fog 36 2.2 33 0.6 89 89 E 9 15 30.12 1020 6 9.65604 0 0
5:06 pm 17:06 Partly Cloudy with Mist and Fog 34 1 32 0 93 93 E 10 17 30.15 1021 4 6.43736 0 0
5:15 pm 17:15 Mostly Cloudy with Mist and Fog 34 1.1 32 0 92 92 E 13 20 30.15 1021 4 6.43736 0 0
5:27 pm 17:27 Cloudy with Mist and Fog 33 0.6 32 0 96 96 E 10 17 30.15 1021 2 3.21868 0 0
5:40 pm 17:40 Cloudy with Mist and Fog 32 0 30 -1 93 93 E 13 20 30.15 1021 3 4.82802 0 0
5:48 pm 17:48 Cloudy with Fog 32 0 30 -1 93 93 ESE 12 19 30.15 1021 0.5 0.80467 0 0
5:54 pm 17:54 Cloudy with Freezing Fog 31 -0.6 30 -1.1 96 96 ESE 16 26 30.13 1020 0.5 0.80467 0 0
6:54 pm 18:54 Cloudy with Mist and Fog 33 0.6 33 0.6 100 100 ESE 10 17 30.11 1020 2.5 4.02335 0 0
7:04 pm 19:04 Cloudy with Mist and Fog 34 1 34 1 100 100 ESE 10 17 30.12 1020 3 4.82802 0 0
7:29 pm 19:29 Cloudy with Mist and Fog 35 1.7 33 0.6 93 93 ESE 10 17 30.12 1020 4 6.43736 0 0
7:54 pm 19:54 Cloudy with Mist and Fog 35 1.7 33 0.6 93 93 SE 16 26 30.12 1020 5 8.0467 0 0
8:45 pm 20:45 Cloudy with Mist and Fog 34 1.1 33 0.6 97 97 SE 10 17 30.15 1021 4 6.43736 0 0
8:54 pm 20:54 Cloudy with Mist and Fog 34 1.1 33 0.6 97 97 SE 14 22 30.12 1020 4 6.43736 0 0
9:26 pm 21:26 Cloudy with Mist and Fog 34 1 34 1 100 100 ESE 16 26 30.15 1021 1.25 2.011675 0 0
9:54 pm 21:54 Cloudy with Mist and Fog 33 0.6 33 0.6 100 100 SE 13 20 30.12 1020 1.25 2.011675 0 0
10:07 pm 22:07 Cloudy with Mist and Fog 34 1.1 33 0.6 97 97 SE 9 15 30.15 1021 2 3.21868 0 0
10:54 pm 22:54 Cloudy with Mist and Fog 34 1.1 34 1.1 100 100 ESE 12 19 30.1 1019 1.75 2.816345 0 0
11:54 pm 23:54 Cloudy with Mist and Fog 35 1.7 34 1.1 96 96 SE 12 19 30.09 1019 1.5 2.41401 0 0

Powered by AerisWeather